Location: St. Louis
(38.6270°N, 90.1994°W)
Time: 02:34:21
(UTC-06:00)

Transit 2A - Pass Details

Date: 04 December 2021
Orbit: 591 x 966 km, 66.7° (Epoch: 24 January)

Event Time Altitude Azimuth Distance (km) Brightness Sun altitude
Rises 08:04:36 0° 337° (NNW) 3,660 9.0 9.2°
Reaches altitude 10° 08:07:25 10° 346° (NNW) 2,710 8.4 9.7°
Maximum altitude 08:13:19 38° 53° (NE) 1,422 7.7 10.6°
Drops below altitude 10° 08:18:56 10° 119° (ESE) 2,592 11.0 11.4°
Sets 08:21:34 0° 128° (SE) 3,483 11.6 11.8°
